"Pseudo-MPEC" for CAXZFZ2

Created 2024 Oct 3 21:22:07 UT using Find_Orb

Click here for an explanation of pseudo-MPECs

 
 Astrometry: 
     CAXZFZ2*1C2024 10 02.30714601 20 17.174+23 07 03.32   ~A287 20.40GVNEOCPG96
     CAXZFZ2 1C2024 10 02.31229801 20 21.628+23 03 52.31   ~A287 20.63GVNEOCPG96
     CAXZFZ2 1C2024 10 02.31745301 20 26.246+23 00 45.07   ~A287x20.74GVNEOCPG96
     CAXZFZ2  C2024 10 02.33442001 20 39.103+22 49 48.33   ~A28q 20.1 GVNEOCPH01
     CAXZFZ2  C2024 10 02.33767601 20 42.026+22 47 44.87   ~A28q 20.0 GVNEOCPH01
     CAXZFZ2  C2024 10 02.35362701 20 56.517+22 37 33.36   ~A28q 19.9 GVNEOCPH01
     CAXZFZ2  C2024 10 02.35808901 21 00.601+22 34 40.66   ~A28q 20.9 GVNEOCPH01
     CAXZFZ2 KC2024 10 02.46338801 22 45.145+21 23 26.45   ~A2Bb       VNEOCPI52
     CAXZFZ2 KC2024 10 02.46448901 22 46.315+21 22 40.69   ~A2Bb 20.87GVNEOCPI52
     CAXZFZ2 KC2024 10 02.46558601 22 47.449+21 21 52.38   ~A2Bb       VNEOCPI52
     CAXZFZ2 KC2024 10 02.46667301 22 48.652+21 21 05.44   ~A2Bb       VNEOCPI52
     CAXZFZ2 KC2024 10 03.20777001 43 46.459+09 12 05.31   ~A35q 19.3 GVNEOCPI52
     CAXZFZ2 KC2024 10 03.20880301 43 48.407+09 10 42.47   ~A35q 18.8 GVNEOCPI52
     CAXZFZ2 KC2024 10 03.20976301 43 50.249+09 09 24.78   ~A35q 19.0 GVNEOCPI52
     CAXZFZ2 KC2024 10 03.21057901 43 33.68 +09 07 09.9    ~A35q 20.2 GVNEOCPH21
     CAXZFZ2 KC2024 10 03.21274001 43 37.68 +09 04 14.3    ~A35q 20.3 GVNEOCPH21
     CAXZFZ2 KC2024 10 03.21903701 43 49.30 +08 55 39.3    ~A35q 19.9 GVNEOCPH21
     CAXZFZ2 KC2024 10 03.26845301 45 37.93 +07 47 16.5    ~A3Aq 20.2 GXNEOCP858
     CAXZFZ2 KC2024 10 03.26969401 45 40.29 +07 45 29.7    ~A3Aq 19.8 GXNEOCP858
     CAXZFZ2 KC2024 10 03.27377601 45 48.11 +07 39 37.9    ~A3Aq 19.9 GXNEOCP858

Station data:
(858) Tebbutt Observatory, Edgewood  (N35.093869 W106.220000)  US/New Mexico.
    Observer F. B. Zoltowski. 0.16-m refractor + CCD0.51-m Schmidt-Cassegrain
   + CCD.
(G96) Mt. Lemmon Survey  (N32.442729 W110.788720)  US/Arizona.  Observer E.
   J. Christensen. 1.5-m reflector + 10K CCD.
(H01) Magdalena Ridge Observatory, Socorro  (N33.984833 W107.189333)  US/New
   Mexico.  Observers W. H. Ryan, E. V. Ryan. Measurer W. H. Ryan. 2.4-m
   f/8.9 reflector + CCD.
(H21) Astronomical Research Observatory, Westfield  (N39.483054 W87.968270)
   US/Illinois.  Observer R. Holmes. Measurers S. Foglia, L. Buzzi, T.
   Linder, R. Holmes. 0.76-m f/3.0 astrograph + CCD0.81-m f/4.0 astrograph +
   CCD0.61-m f/4.5 astrograph + CCD0.40-m f/5.32 astrograph + CCD.
(I52) Steward Observatory, Mt. Lemmon Station  (N32.442570 W110.788920)
   US/Arizona.  Observers T. A. Pruyne, B. M. Africano, E. J. Christensen, G.
   A. Farneth, D. C. Fuls, A. R. Gibbs, A. D. Grauer, H. Gröller, J. A.
   Johnson, R. A. Kowalski, S. M. Larson, G. J. Leonard, D. Rankin, R. L.
   Seaman, F. C. Shelly, K. W. Wierzchoś. 1.0-m prime focus + CCD.

Orbital elements:  CAXZFZ2
   Perihelion 2024 Dec 19.90377 +/- 0.0198 TT = 21:41:25 (JD 2460664.40377)
Epoch 2024 Oct  3.0 TT = JDT 2460586.5   Earth MOID: 0.0064      AutoNEOCP
M 282.69293312 +/- 0.029            (J2000 ecliptic)
n   0.99234050 +/- 0.000132         Peri.  289.04734 +/- 0.008
a   0.99547166 +/- 8.82e-5          Node   190.25218 +/- 0.00011
e   0.2778708 +/- 0.000186          Incl.   14.19954 +/- 0.010
P   0.993/362.772d         H 29.01  G  0.15   U  6.8
q 0.71885911 +/- 0.000126    Q 1.27208421 +/- 0.000294
19 of 20 observations 2024 Oct. 2-3 (23.2 hr); mean residual 0".36
Residuals in arcseconds: 
241002 G96  .45+  .29+    241002 I52  .29-  .29-    241003 H21  .12+  .36-    
241002 G96  1.0-  .59-    241002 I52  .10-  1.1+    241003 H21  .33+  .02-    
241002 G96( .37-  3.4+)   241002 I52  .39-  .13-    241003 H21  .13+  .14-    
241002 H01  .34+  .05-    241002 I52  .41+  .40-    241003 858  .13+  .07+    
241002 H01  .19+  .12+    241003 I52  .12+  .41-    241003 858  .18-  .04+    
241002 H01  .25+  .04+    241003 I52  .14-  .20+    241003 858  .51-  .40+    
241002 H01  .17+  .10+    241003 I52  .08+  .14+    

Ephemerides (geocentric):
Date (UTC) HH   RA             Dec           delta  r     elong  mag " sig PA
---- --------  ------------   ------------  ------ ------ -----  --- --------
2024 10 03 21  02 14 46.876   -11 27 17.17  .00725 1.0068 151.6 19.6 3.31 151
2024 10 03 22  02 17 30.954   -13 10 56.76  .00714 1.0066 150.1 19.6 3.66 151
2024 10 03 23  02 20 22.372   -14 57 35.38  .00704 1.0064 148.5 19.6 4.02 151
2024 10 04 00  02 23 21.581   -16 47 04.98  .00694 1.0062 146.9 19.6 4.39 151
2024 10 04 01  02 26 29.059   -18 39 15.18  .00686 1.0060 145.2 19.6 4.78 151
2024 10 04 02  02 29 45.320   -20 33 53.28  .00678 1.0058 143.4 19.7 5.19 151
2024 10 04 03  02 33 10.914   -22 30 44.09  .00672 1.0056 141.5 19.7 5.60 151
2024 10 04 04  02 36 46.425   -24 29 30.06  995918 1.0054 139.6 19.7 6.02 151
2024 10 04 05  02 40 32.478   -26 29 51.27  988609 1.0052 137.7 19.8 6.45 151
2024 10 04 06  02 44 29.737   -28 31 25.65  982745 1.0050 135.7 19.8 6.87 151
2024 10 04 07  02 48 38.907   -30 33 49.20  978351 1.0048 133.6 19.9 7.29 150
2024 10 04 08  02 53 00.737   -32 36 36.28  975447 1.0046 131.5 19.9 7.70 150
2024 10 04 09  02 57 36.013   -34 39 20.00  974047 1.0044 129.5 20.0 8.10 149
2024 10 04 10  03 02 25.565   -36 41 32.63  974157 1.0042 127.3 20.0 8.48 149
2024 10 04 11  03 07 30.260   -38 42 46.04  975775 1.0040 125.2 20.1 8.83 148
2024 10 04 12  03 12 50.998   -40 42 32.17  978896 1.0038 123.1 20.1 9.17 147
2024 10 04 13  03 18 28.706   -42 40 23.48  983503 1.0036 121.0 20.2 9.48 146
2024 10 04 14  03 24 24.332   -44 35 53.36  989576 1.0034 118.9 20.3 9.75 145
2024 10 04 15  03 30 38.831   -46 28 36.50  997088 1.0032 116.9 20.4 10.0 144
2024 10 04 16  03 37 13.150   -48 18 09.21  .00672 1.0030 114.8 20.5 10.2 143
2024 10 04 17  03 44 08.207   -50 04 09.68  .00679 1.0028 112.8 20.5 10.4 142
2024 10 04 18  03 51 24.871   -51 46 18.15  .00687 1.0026 110.9 20.6 10.6 140
2024 10 04 19  03 59 03.928   -53 24 17.04  .00696 1.0024 109.0 20.7 10.7 139
2024 10 04 20  04 07 06.047   -54 57 51.02  .00705 1.0022 107.1 20.8 10.8 137
2024 10 04 21  04 15 31.740   -56 26 47.00  .00715 1.0020 105.3 20.9 10.8 135
2024 10 04 22  04 24 21.315   -57 50 54.15  .00726 1.0018 103.5 21.0 10.9 134
2024 10 04 23  04 33 34.829   -59 10 03.85  .00738 1.0016 101.8 21.1 10.9 132
2024 10 05 00  04 43 12.031   -60 24 09.65  .00751 1.0014 100.1 21.2 10.9 130
2024 10 05 01  04 53 12.319   -61 33 07.23  .00764 1.0012  98.5 21.3 10.8 127
2024 10 05 02  05 03 34.690   -62 36 54.33  .00777 1.0010  97.0 21.4 10.8 125
2024 10 05 03  05 14 17.706   -63 35 30.75  .00792 1.0008  95.5 21.5 10.7 123
2024 10 05 04  05 25 19.472   -64 28 58.34  .00807 1.0006  94.0 21.5 10.6 120
2024 10 05 05  05 36 37.637   -65 17 20.89  .00822 1.0004  92.6 21.6 10.5 117
2024 10 05 06  05 48 09.417   -66 00 44.19  .00838 1.0002  91.3 21.7 10.4 115
2024 10 05 07  05 59 51.640   -66 39 15.91  .00854 1.0000  90.0 21.8 10.3 112
2024 10 05 08  06 11 40.821   -67 13 05.51  .00871 0.9998  88.8 21.9 10.2 109
2024 10 05 09  06 23 33.262   -67 42 24.16  .00888 0.9996  87.6 22.0 10.1 107
2024 10 05 10  06 35 25.157   -68 07 24.50  .00906 0.9994  86.4 22.1 9.94 104
2024 10 05 11  06 47 12.722   -68 28 20.48  .00924 0.9992  85.3 22.2 9.81 101
2024 10 05 12  06 58 52.307   -68 45 27.06  .00942 0.9990  84.2 22.3 9.67  98
2024 10 05 13  07 10 20.506   -68 58 59.96  .00961 0.9988  83.2 22.4 9.53  95
2024 10 05 14  07 21 34.250   -69 09 15.38  .00980 0.9986  82.2 22.5 9.39  93
2024 10 05 15  07 32 30.874   -69 16 29.66  .00999 0.9984  81.3 22.5 9.25  90
2024 10 05 16  07 43 08.154   -69 20 59.04  .01019 0.9982  80.4 22.6 9.11  88
2024 10 05 17  07 53 24.326   -69 22 59.41  .01038 0.9980  79.5 22.7 8.97  85
2024 10 05 18  08 03 18.078   -69 22 46.08  .01059 0.9978  78.6 22.8 8.83  83
2024 10 05 19  08 12 48.522   -69 20 33.64  .01079 0.9976  77.8 22.9 8.69  80
2024 10 05 20  08 21 55.161   -69 16 35.84  .01099 0.9974  77.1 23.0 8.56  78